TimeEST,TemperatureF,Dew PointF,Humidity,Sea Level PressureIn,VisibilityMPH,Wind Direction,Wind SpeedMPH,Gust SpeedMPH,PrecipitationIn,Events,Conditions,WindDirDegrees,DateUTC
12:53 AM,59.0,55.9,90,30.09,7.0,NE,6.9,-,N/A,,Overcast,40,2014-02-09 05:53:00
1:53 AM,59.0,55.9,90,30.08,8.0,NE,4.6,-,N/A,,Overcast,50,2014-02-09 06:53:00
2:53 AM,57.9,55.9,93,30.07,8.0,NE,5.8,-,N/A,,Overcast,50,2014-02-09 07:53:00
3:53 AM,59.0,55.9,90,30.05,9.0,NNE,8.1,-,N/A,,Overcast,30,2014-02-09 08:53:00
4:53 AM,57.9,55.9,93,30.05,7.0,NNE,4.6,-,N/A,,Overcast,30,2014-02-09 09:53:00
5:53 AM,57.9,55.0,90,30.06,9.0,NNE,8.1,-,N/A,,Overcast,20,2014-02-09 10:53:00
6:53 AM,57.9,54.0,87,30.07,10.0,NNE,6.9,-,N/A,,Overcast,30,2014-02-09 11:53:00
7:53 AM,57.9,55.0,90,30.09,10.0,NNE,6.9,-,N/A,,Overcast,20,2014-02-09 12:53:00
8:53 AM,60.1,55.0,83,30.11,10.0,NE,6.9,-,N/A,,Overcast,40,2014-02-09 13:53:00
9:53 AM,61.0,55.0,81,30.14,10.0,NNE,6.9,-,N/A,,Overcast,20,2014-02-09 14:53:00
10:53 AM,64.0,55.9,75,30.14,10.0,NNE,6.9,-,N/A,,Overcast,30,2014-02-09 15:53:00
11:07 AM,64.0,55.9,75,30.14,10.0,NE,5.8,-,N/A,,Overcast,50,2014-02-09 16:07:00
11:49 AM,66.2,57.2,73,30.12,10.0,NNE,6.9,-,N/A,,Overcast,20,2014-02-09 16:49:00
11:53 AM,66.9,57.0,70,30.12,10.0,North,5.8,-,N/A,,Mostly Cloudy,10,2014-02-09 16:53:00
12:17 PM,68.0,57.0,68,30.11,10.0,North,4.6,-,N/A,,Scattered Clouds,10,2014-02-09 17:17:00
12:53 PM,71.1,57.0,61,30.09,10.0,Variable,5.8,-,N/A,,Partly Cloudy,0,2014-02-09 17:53:00
1:53 PM,73.0,55.9,55,30.06,10.0,NNW,9.2,-,N/A,,Clear,330,2014-02-09 18:53:00
2:53 PM,73.0,52.0,48,30.05,10.0,North,12.7,17.3,N/A,,Clear,350,2014-02-09 19:53:00
3:53 PM,72.0,51.1,48,30.04,10.0,North,12.7,-,N/A,,Clear,360,2014-02-09 20:53:00
4:53 PM,72.0,52.0,49,30.05,10.0,North,9.2,-,N/A,,Clear,350,2014-02-09 21:53:00
5:53 PM,66.9,53.1,61,30.06,10.0,NNW,6.9,-,N/A,,Clear,330,2014-02-09 22:53:00
6:53 PM,61.0,52.0,72,30.06,10.0,NW,4.6,-,N/A,,Clear,320,2014-02-09 23:53:00
7:53 PM,59.0,52.0,78,30.07,10.0,NNW,5.8,-,N/A,,Clear,340,2014-02-10 00:53:00
8:53 PM,60.1,50.0,69,30.08,10.0,North,6.9,-,N/A,,Clear,360,2014-02-10 01:53:00
9:53 PM,59.0,48.9,69,30.09,10.0,North,3.5,-,N/A,,Clear,360,2014-02-10 02:53:00
10:53 PM,57.9,52.0,81,30.09,10.0,NNE,6.9,-,N/A,,Clear,20,2014-02-10 03:53:00
11:53 PM,57.0,52.0,83,30.09,10.0,NNE,5.8,-,N/A,,Clear,30,2014-02-10 04:53:00